Simultaneous Nadir Overpasses (SNOs) Predictions

Prediction of SNOs between GOES-16 and LANDSAT-8 Satellite Orbit:

Table of predicted SNOs for the next 14.0 days since TLE Epoch: 6/13/2025
Index Date Time (GOES-16) GOES-16 Lat,Lon LANDSAT-8 Lat,Lon Distance(km) Time Diff (sec)
1 06/15/2025 17:00:08 0.02,-104.73 -0.57,-101.80 332.71 80
2 06/16/2025 05:21:32 -0.02,-104.71 -0.51,-107.00 260.34 80
3 06/18/2025 05:06:43 -0.02,-104.69 0.12,-104.05 73.90 80
4 06/20/2025 04:54:33 -0.02,-104.68 0.77,-101.09 408.26 80
5 06/20/2025 17:15:47 0.02,-104.69 0.37,-106.24 176.56 80
6 06/22/2025 17:06:17 0.01,-104.67 -0.29,-103.29 157.46 80
7 06/23/2025 05:27:41 -0.01,-104.65 -0.83,-108.48 435.38 80
8 06/24/2025 16:54:06 0.01,-104.65 -0.91,-100.33 491.06 80
9 06/25/2025 05:15:30 -0.00,-104.63 -0.21,-105.52 101.81 80
10 06/27/2025 05:00:39 0.00,-104.60 0.43,-102.56 232.20 80
11 06/27/2025 17:21:55 -0.00,-104.62 0.65,-107.72 352.81 80
